Regional Weather Roundup
Issued by NWS Cleveland, OH

Home | Current Version | Previous Version | Graphics & Text | Print | Product List | Glossary On
Versions: 1 2 3 4 5 6 7 8 9 10 11 12 13 14 15 16 17 18 19 20 21 22 23 24 25 26 27 28 29 30 31 32 33 34 35 36 37 38 39 40 41 42 43 44 45 46 47 48 49 50
000
ASUS41 KCLE 050300
RWRCLE
OHIO REGIONAL WEATHER ROUNDUP
NATIONAL WEATHER SERVICE WILMINGTON, OH
1100 PM EDT SAT JUL 04 2015

NOTE: "FAIR" INDICATES FEW OR NO CLOUDS BELOW 12,000 FEET WITH NO
SIGNIFICANT WEATHER AND/OR OBSTRUCTIONS TO VISIBILITY.

OHZ001>008-015>018-024>027-034-035-043-044-050400-
   NORTHWEST OHIO

CITY           SKY/WX    TMP DP  RH WIND       PRES   REMARKS
DEFIANCE       CLEAR     65  61  87 CALM      30.04R
FINDLAY        CLEAR     68  58  70 E5        30.04R
TOLEDO EXPRESS CLEAR     62  56  80 CALM      30.04R
TOLEDO EXEC    CLEAR     65  55  70 SE5       30.05R
LIMA           CLEAR     63  60  90 CALM      30.05R
$$

OHZ009>014-019>023-028>033-038-089-050400-
   NORTHEAST OHIO

CITY           SKY/WX    TMP DP  RH WIND       PRES   REMARKS
CLE-HOPKINS    CLEAR     64  52  64 CALM      30.08R
CLE-LAKEFRONT  CLEAR     70  51  51 S3        30.05R
CUY CO. ARPT   CLEAR     63  55  77 CALM      30.06R
LORAIN-ELYRIA  CLEAR     61  54  77 CALM      30.07R
ASHTABULA      CLEAR     59  57  93 CALM      30.07R FOG
AKRON-CANTON   PTCLDY    63  51  65 NE5       30.07R
WOOSTER        NOT AVBL
MANSFIELD      CLEAR     62  57  83 CALM      30.08R
YOUNGSTOWN     CLEAR     58  51  78 CALM      30.07R
$$

OHZ042-051>053-060>062-070>072-077>081-050400-
  SOUTHWEST OHIO

CITY           SKY/WX    TMP DP  RH WIND       PRES   REMARKS
CINC-COVINGTON CLOUDY    73  61  65 E6        30.05R
CINC-LUNKEN    MOCLDY    66  64  93 CALM      30.04R
HAMILTON       MOCLDY    65  62  90 CALM      30.05R
DAYTON         NOT AVBL
WRIGHT-PAT AFB PTCLDY    69  60  73 CALM      30.05R
DAYTON GENERAL MOCLDY    69  59  70 E5        30.05R
WILMINGTON     MOCLDY    67  58  72 NE5       30.06R
$$

OHZ036-037-039>041-045>050-054>059-063>069-073>076-082>088-050400-
  CENTRAL AND SOUTHEAST OHIO

CITY           SKY/WX    TMP DP  RH WIND       PRES   REMARKS
COLUMBUS       CLOUDY    66  58  75 NE3       30.05R
OSU AIRPORT    PTCLDY    65  57  75 CALM      30.05R
BOLTON FIELD   NOT AVBL
RICKENBACK AFB NOT AVBL
NEWARK         PTCLDY    62  59  90 CALM      30.05R
MARION         CLEAR     64  58  80 CALM      30.06R
LANCASTER      PTCLDY    61  58  90 CALM      30.06R
ZANESVILLE     PTCLDY    65  60  84 CALM      30.06R HAZE
NEW PHILLY     CLEAR     62  60  93 CALM      30.07R
$$



USA.gov is the U.S. government's official web portal to all federal, state and local government web resources and services.